This demonstration page uses our WeatherBlox Daily Observations layout. Learn more.

Left ArrowRight Arrow

44.8408, -93.29828

Hourly Observations for March 21, 2016

Temp ( °F °C ) Dew Point ( °F °C ) Humidity (%) Winds ( mph kmh ) Pressure ( in mb ) Visibility ( mi km ) Precip ( " mm )
12:53 am 00:53 Partly Cloudy 32 0 21 -6.1 64 64 W 5 7 30.22 1023 10 16 0.00 0.00
1:53 am 01:53 Mostly Cloudy 31 -0.6 21 -6.1 67 67 Calm 30.20 1023 10 16 0.00 0.00
2:53 am 02:53 Mostly Cloudy 31 -0.6 21 -6.1 67 67 Calm 30.19 1022 10 16 0.00 0.00
3:53 am 03:53 Mostly Cloudy 30 -1.1 22 -5.6 72 72 Calm 30.18 1022 10 16 0.00 0.00
4:53 am 04:53 Partly Cloudy 29 -1.7 22 -5.6 75 75 SW 5 7 30.17 1022 10 16 0.00 0.00
5:53 am 05:53 Partly Cloudy 28 -2.2 22 -5.6 78 78 SSW 3 6 30.16 1021 10 16 0.00 0.00
6:53 am 06:53 Partly Cloudy 28 -2.2 22 -5.6 78 78 S 3 6 30.15 1021 10 16 0.00 0.00
7:53 am 07:53 Mostly Cloudy 28 -2.2 22 -5.6 78 78 SE 3 6 30.14 1021 10 16 0.00 0.00
8:53 am 08:53 Mostly Cloudy 33 0.6 24 -4.4 70 70 S 5 7 30.13 1020 10 16 0.00 0.00
9:53 am 09:53 Mostly Cloudy 35 1.7 24 -4.4 64 64 SSE 8 13 30.11 1020 10 16 0.00 0.00
10:53 am 10:53 Mostly Cloudy 38 3.3 23 -5 55 55 SSE 10 17 30.09 1019 10 16 0.00 0.00
11:53 am 11:53 Mostly Cloudy 41 5 24 -4.4 51 51 S 13 20 30.06 1018 10 16 0.00 0.00
12:53 pm 12:53 Cloudy 45 7.2 25 -3.9 46 46 SSE 16 26 30.02 1017 10 16 0.00 0.00
1:53 pm 13:53 Cloudy 47 8.3 25 -3.9 42 42 SSE 13 20 29.97 1015 10 16 0.00 0.00
2:53 pm 14:53 Mostly Cloudy 50 10 27 -2.8 41 41 SE 14 22 29.91 1013 10 16 0.00 0.00
3:53 pm 15:53 Cloudy 52 11.1 27 -2.8 38 38 SE 15 24 29.88 1012 10 16 0.00 0.00
4:53 pm 16:53 Mostly Cloudy 51 10.6 29 -1.7 43 43 SSE 17 28 29.85 1011 10 16 0.00 0.00
5:53 pm 17:53 Cloudy 52 11.1 29 -1.7 41 41 SE 13 20 29.83 1010 10 16 0.00 0.00
6:53 pm 18:53 Mostly Cloudy 51 10.6 29 -1.7 43 43 SE 13 20 29.82 1010 10 16 0.00 0.00
7:53 pm 19:53 Cloudy 50 10 29 -1.7 44 44 ESE 12 19 29.80 1009 10 16 0.00 0.00
8:53 pm 20:53 Cloudy 48 8.9 29 -1.7 48 48 E 14 22 29.79 1009 10 16 0.00 0.00
9:53 pm 21:53 Cloudy 47 8.3 29 -1.7 50 50 E 15 24 29.77 1008 10 16 0.00 0.00
10:53 pm 22:53 Cloudy 46 7.8 29 -1.7 51 51 ESE 15 24 29.74 1007 10 16 0.00 0.00
11:53 pm 23:53 Partly Cloudy 45 7.2 28 -2.2 52 52 SE 9 15 29.71 1006 10 16 0.00 0.00

Powered by AerisWeather